M I D A S
Marine Information and Data Acquisition System
Tripno 2170 of the Zeeleeuw from 2011-08-24 07:46:48 to 2011-08-24 18:34:13
Back to CruiseResearch ActivitiesStationsMapUnderway DataData graphs

EquipmentUnitsComments
TimeDGPSUTC
LatitudeDGPSDM.mWGS84
LongitudeDGPSDM.mWGS84
SpeedMeteo Stationm/sRelative wind speed
DirectionMeteo StationdegRelative wind direction
TemperatureMeteo Stationdeg CelciusAir temperature
PressureMeteo StationPaAtmospheric pressure
HumidityMeteo Station%Relative humidity
Missing or incorrect values are displayed as -999
Metereological data collected by the RV Zeeleeuw from 2011-08-24 07:37:39 to 2011-08-24 18:44:02
                                                                                    Next 1000 lines
Time Latitude Longitude Speed Direction Temperature Pressure Humidity
2011-08-24 07:37:49 51°13.636 2°56.013 -999 25 16.6 101280 47
2011-08-24 07:37:54 51°13.637 2°56.009 -999 55 16.6 101280 47
2011-08-24 07:37:59 51°13.638 2°56.004 -999 43 16.6 101280 47
2011-08-24 07:38:04 51°13.64 2°55.999 -999 43 16.6 101280 47
2011-08-24 07:38:10 51°13.642 2°55.992 3.6 19 16.6 101280 46
2011-08-24 07:38:16 51°13.644 2°55.984 2.1 43 16.6 101280 46
2011-08-24 07:38:22 51°13.645 2°55.977 3.4 29 16.6 101280 47
2011-08-24 07:38:27 51°13.646 2°55.97 3.1 51 16.6 101280 47
2011-08-24 07:38:32 51°13.648 2°55.964 2.5 43 16.6 101290 48
2011-08-24 07:38:38 51°13.649 2°55.956 3.5 45 16.6 101290 48
2011-08-24 07:38:43 51°13.651 2°55.95 1.9 43 16.6 101280 46
2011-08-24 07:38:48 51°13.653 2°55.943 3.2 44 16.6 101280 46
2011-08-24 07:38:52 51°13.654 2°55.938 3.8 41 16.6 101280 48
2011-08-24 07:38:57 51°13.657 2°55.931 3.5 44 16.6 101280 48
2011-08-24 07:39:03 51°13.66 2°55.923 2.9 43 16.6 101280 46
2011-08-24 07:39:08 51°13.663 2°55.916 3.4 43 16.6 101280 46
2011-08-24 07:39:12 51°13.665 2°55.91 3.8 42 16.6 101280 48
2011-08-24 07:39:18 51°13.668 2°55.9 1.1 45 16.6 101280 48
2011-08-24 07:39:22 51°13.67 2°55.893 0.4 43 16.6 101280 48
2011-08-24 07:39:28 51°13.672 2°55.882 3.3 44 16.6 101280 48
2011-08-24 07:39:32 51°13.674 2°55.875 3.4 43 16.6 101280 46
2011-08-24 07:39:37 51°13.677 2°55.866 2.9 44 16.6 101280 46
2011-08-24 07:39:42 51°13.68 2°55.857 2.6 33 16.6 101280 46
2011-08-24 07:39:48 51°13.684 2°55.846 2.8 40 16.6 101280 46
2011-08-24 07:39:52 51°13.686 2°55.838 2.7 30 16.6 101280 47
2011-08-24 07:39:58 51°13.691 2°55.827 2.9 52 16.6 101280 47
2011-08-24 07:40:03 51°13.695 2°55.818 3.5 21 16.6 101280 46
2011-08-24 07:40:07 51°13.698 2°55.81 3.4 51 16.6 101280 46
2011-08-24 07:40:12 51°13.701 2°55.8 4.1 27 16.6 101280 47
2011-08-24 07:40:18 51°13.706 2°55.789 4 43 16.6 101280 47
2011-08-24 07:40:23 51°13.71 2°55.779 4.5 42 16.6 101280 46
2011-08-24 07:40:27 51°13.713 2°55.772 4 42 16.6 101280 46
2011-08-24 07:40:32 51°13.718 2°55.762 3.3 41 16.6 101280 48
2011-08-24 07:40:38 51°13.723 2°55.751 3.5 36 16.6 101280 48
2011-08-24 07:40:43 51°13.727 2°55.742 3.2 38 16.6 101280 46
2011-08-24 07:40:48 51°13.732 2°55.734 2.8 36 16.6 101280 46
2011-08-24 07:40:52 51°13.735 2°55.727 2.3 30 16.6 101280 45
2011-08-24 07:40:57 51°13.74 2°55.719 0.2 40 16.6 101280 45
2011-08-24 07:41:03 51°13.745 2°55.709 2.2 35 16.6 101280 48
2011-08-24 07:41:08 51°13.749 2°55.702 1.2 36 16.6 101280 48
2011-08-24 07:41:12 51°13.753 2°55.696 0.2 39 16.6 101280 46
2011-08-24 07:41:17 51°13.758 2°55.69 0.1 38 16.6 101280 46
2011-08-24 07:41:22 51°13.762 2°55.683 0.1 36 16.6 101280 47
2011-08-24 07:41:28 51°13.768 2°55.676 1.3 38 16.6 101280 47
2011-08-24 07:41:32 51°13.772 2°55.672 0.9 37 16.6 101280 47
2011-08-24 07:41:37 51°13.777 2°55.666 0.3 55 16.6 101280 47
2011-08-24 07:41:42 51°13.783 2°55.661 0.1 30 16.6 101280 48
2011-08-24 07:41:48 51°13.79 2°55.654 0.1 23 16.6 101280 48
2011-08-24 07:41:52 51°13.795 2°55.65 -999 33 16.6 101280 47
2011-08-24 07:41:58 51°13.804 2°55.645 -999 41 16.6 101280 47
2011-08-24 07:42:02 51°13.809 2°55.641 -999 24 16.7 101280 47
2011-08-24 07:42:07 51°13.817 2°55.638 -999 41 16.7 101280 47
2011-08-24 07:42:12 51°13.825 2°55.634 0.1 35 16.7 101280 47
2011-08-24 07:42:18 51°13.834 2°55.631 0.6 50 16.7 101280 47
2011-08-24 07:42:23 51°13.842 2°55.628 1.1 22 16.7 101280 47
2011-08-24 07:42:27 51°13.848 2°55.626 0.3 54 16.7 101280 47
2011-08-24 07:42:32 51°13.855 2°55.624 0.1 24 16.7 101280 47
2011-08-24 07:42:38 51°13.864 2°55.622 0.1 55 16.7 101280 47
2011-08-24 07:42:43 51°13.871 2°55.622 -999 41 16.7 101280 48
2011-08-24 07:42:48 51°13.878 2°55.621 -999 43 16.7 101280 48
2011-08-24 07:42:52 51°13.884 2°55.621 -999 33 16.7 101280 47
2011-08-24 07:42:58 51°13.892 2°55.622 -999 25 16.7 101280 47
2011-08-24 07:43:03 51°13.898 2°55.623 -999 21 16.7 101280 47
2011-08-24 07:43:08 51°13.904 2°55.624 -999 22 16.7 101280 47
2011-08-24 07:43:12 51°13.909 2°55.625 -999 22 16.7 101280 47
2011-08-24 07:43:17 51°13.915 2°55.627 -999 19 16.7 101280 47
2011-08-24 07:43:22 51°13.92 2°55.629 -999 4 16.7 101280 47
2011-08-24 07:43:28 51°13.926 2°55.632 -999 1 16.7 101280 47
2011-08-24 07:43:32 51°13.93 2°55.634 -999 6 16.7 101280 46
2011-08-24 07:43:37 51°13.935 2°55.636 -999 13 16.7 101280 46
2011-08-24 07:43:42 51°13.939 2°55.639 -999 13 16.7 101280 47
2011-08-24 07:43:48 51°13.944 2°55.642 -999 12 16.7 101280 47
2011-08-24 07:43:52 51°13.947 2°55.644 -999 16 16.7 101280 47
2011-08-24 07:43:57 51°13.95 2°55.647 -999 14 16.7 101280 47
2011-08-24 07:44:01 51°13.952 2°55.649 0.1 14 16.7 101280 47
2011-08-24 07:44:07 51°13.955 2°55.651 0.6 17 16.7 101280 47
2011-08-24 07:44:12 51°13.958 2°55.653 0.2 346 16.7 101280 47
2011-08-24 07:44:16 51°13.959 2°55.654 0.2 332 16.7 101280 47
2011-08-24 07:44:21 51°13.96 2°55.655 0.1 343 16.7 101280 46
2011-08-24 07:44:26 51°13.961 2°55.655 0.1 339 16.7 101280 46
2011-08-24 07:44:31 51°13.961 2°55.654 -999 341 16.7 101280 47
2011-08-24 07:44:36 51°13.961 2°55.653 -999 331 16.7 101280 47
2011-08-24 07:44:40 51°13.961 2°55.651 -999 327 16.7 101280 47
2011-08-24 07:44:45 51°13.961 2°55.649 -999 330 16.7 101280 47
2011-08-24 07:44:50 51°13.961 2°55.645 -999 322 16.7 101280 47
2011-08-24 07:44:55 51°13.961 2°55.64 -999 305 16.7 101280 47
2011-08-24 07:45:00 51°13.962 2°55.635 -999 325 16.7 101280 47
2011-08-24 07:45:04 51°13.962 2°55.63 -999 305 16.7 101280 47
2011-08-24 07:45:09 51°13.964 2°55.624 -999 320 16.7 101270 47
2011-08-24 07:45:15 51°13.966 2°55.616 -999 305 16.7 101270 47
2011-08-24 07:45:19 51°13.968 2°55.61 -999 318 16.7 101270 47
2011-08-24 07:45:24 51°13.972 2°55.602 -999 305 16.7 101270 47
2011-08-24 07:45:29 51°13.976 2°55.594 0.1 25 16.7 101270 47
2011-08-24 07:45:34 51°13.982 2°55.586 4.6 300 16.7 101270 47
2011-08-24 07:45:39 51°13.988 2°55.578 5.2 20 16.7 101270 47
2011-08-24 07:45:44 51°13.995 2°55.569 6 309 16.7 101270 47
2011-08-24 07:45:48 51°14 2°55.561 5.4 20 16.7 101270 48
2011-08-24 07:45:54 51°14.01 2°55.55 5.5 301 16.7 101270 48
2011-08-24 07:45:59 51°14.019 2°55.541 5.2 25 16.7 101270 46
2011-08-24 07:46:04 51°14.028 2°55.532 5 307 16.7 101270 46
2011-08-24 07:46:09 51°14.038 2°55.522 4.5 28 16.6 101260 45
2011-08-24 07:46:14 51°14.047 2°55.511 5.2 303 16.6 101260 45
2011-08-24 07:46:20 51°14.059 2°55.498 3.6 320 16.6 101260 48
2011-08-24 07:46:25 51°14.07 2°55.487 3.7 308 16.6 101260 48
2011-08-24 07:46:30 51°14.08 2°55.476 5.4 316 16.6 101270 48
2011-08-24 07:46:36 51°14.093 2°55.462 4.5 302 16.6 101270 48
2011-08-24 07:46:40 51°14.103 2°55.453 4.3 321 16.6 101270 46
2011-08-24 07:46:45 51°14.114 2°55.443 4.7 304 16.6 101270 46
2011-08-24 07:46:51 51°14.128 2°55.429 5.4 328 16.6 101260 46
2011-08-24 07:46:56 51°14.14 2°55.418 6.2 322 16.6 101260 46
2011-08-24 07:47:01 51°14.153 2°55.407 4.9 324 16.6 101270 48
2011-08-24 07:47:06 51°14.165 2°55.396 5.1 325 16.6 101270 48
2011-08-24 07:47:11 51°14.177 2°55.385 6 322 16.7 101270 47
2011-08-24 07:47:16 51°14.19 2°55.373 7.4 302 16.7 101270 47
2011-08-24 07:47:21 51°14.202 2°55.361 5.8 319 16.7 101260 47
2011-08-24 07:47:26 51°14.214 2°55.35 6.4 309 16.7 101260 47
2011-08-24 07:47:31 51°14.227 2°55.338 5.1 21 16.7 101260 46
2011-08-24 07:47:36 51°14.24 2°55.326 6.2 303 16.7 101260 46
2011-08-24 07:47:42 51°14.256 2°55.312 6.5 27 16.7 101260 48
2011-08-24 07:47:48 51°14.271 2°55.298 6.2 308 16.7 101260 48
2011-08-24 07:47:52 51°14.282 2°55.289 7 27 16.7 101260 46
2011-08-24 07:47:57 51°14.295 2°55.277 6.5 308 16.7 101260 46
2011-08-24 07:48:03 51°14.311 2°55.263 7 27 16.7 101260 47
2011-08-24 07:48:08 51°14.324 2°55.25 5.6 305 16.7 101260 47
2011-08-24 07:48:12 51°14.334 2°55.24 8.1 25 16.7 101260 47
2011-08-24 07:48:17 51°14.347 2°55.227 5.7 306 16.7 101260 47
2011-08-24 07:48:22 51°14.36 2°55.215 6.1 28 16.7 101260 47
2011-08-24 07:48:28 51°14.376 2°55.201 6.5 303 16.7 101260 47
2011-08-24 07:48:32 51°14.387 2°55.191 8.2 19 16.7 101260 47
2011-08-24 07:48:37 51°14.4 2°55.178 8.2 302 16.7 101260 47
2011-08-24 07:48:42 51°14.414 2°55.165 8.3 20 16.7 101260 47
2011-08-24 07:48:47 51°14.427 2°55.152 6.5 302 16.7 101260 47
2011-08-24 07:48:52 51°14.439 2°55.138 6.4 27 16.7 101260 46
2011-08-24 07:48:57 51°14.453 2°55.124 6.9 303 16.7 101260 46
2011-08-24 07:49:02 51°14.466 2°55.111 7.2 21 16.7 101250 48
2011-08-24 07:49:07 51°14.48 2°55.098 8.9 308 16.7 101250 48
2011-08-24 07:49:12 51°14.493 2°55.084 7.7 23 16.7 101250 48
2011-08-24 07:49:16 51°14.504 2°55.074 6.6 302 16.7 101250 48
2011-08-24 07:49:21 51°14.518 2°55.062 7.2 24 16.7 101260 48
2011-08-24 07:49:26 51°14.532 2°55.048 7.4 302 16.7 101260 48
2011-08-24 07:49:31 51°14.545 2°55.035 9 21 16.7 101250 48
2011-08-24 07:49:36 51°14.559 2°55.022 8.3 307 16.7 101250 48
2011-08-24 07:49:40 51°14.57 2°55.011 7.9 28 16.7 101250 47
2011-08-24 07:49:45 51°14.584 2°54.999 7.1 308 16.7 101250 47
2011-08-24 07:49:50 51°14.599 2°54.986 6.9 27 16.7 101250 48
2011-08-24 07:49:55 51°14.613 2°54.973 8.7 304 16.7 101250 48
2011-08-24 07:50:00 51°14.625 2°54.959 7.9 28 16.7 101250 46
2011-08-24 07:50:05 51°14.638 2°54.944 9 306 16.7 101250 46
2011-08-24 07:50:09 51°14.648 2°54.932 8.6 23 16.7 101250 47
2011-08-24 07:50:14 51°14.66 2°54.916 9.4 303 16.7 101250 47
2011-08-24 07:50:20 51°14.672 2°54.894 9.5 320 16.7 101250 47
2011-08-24 07:50:24 51°14.68 2°54.879 9 307 16.7 101250 47
2011-08-24 07:50:29 51°14.688 2°54.86 8.5 321 16.7 101250 46
2011-08-24 07:50:34 51°14.696 2°54.84 9.4 324 16.7 101250 46
2011-08-24 07:50:39 51°14.703 2°54.819 10.1 322 16.7 101250 47
2011-08-24 07:50:44 51°14.708 2°54.798 11.5 302 16.7 101250 47
2011-08-24 07:50:49 51°14.715 2°54.776 10.1 323 16.7 101250 48
2011-08-24 07:50:54 51°14.719 2°54.753 10 303 16.7 101250 48
2011-08-24 07:50:59 51°14.723 2°54.731 9.9 325 16.7 101250 47
2011-08-24 07:51:04 51°14.727 2°54.707 11.9 325 16.7 101250 47
2011-08-24 07:51:09 51°14.729 2°54.683 9.9 325 16.7 101250 47
2011-08-24 07:51:14 51°14.731 2°54.659 10.1 325 16.7 101250 47
2011-08-24 07:51:19 51°14.732 2°54.634 11.6 325 16.7 101250 48
2011-08-24 07:51:24 51°14.732 2°54.609 11 326 16.7 101250 48
2011-08-24 07:51:29 51°14.732 2°54.583 8.9 326 16.7 101250 45
2011-08-24 07:51:34 51°14.731 2°54.558 8.9 303 16.7 101250 45
2011-08-24 07:51:39 51°14.73 2°54.533 9 324 16.7 101250 47
2011-08-24 07:51:44 51°14.729 2°54.507 11 300 16.7 101250 47
2011-08-24 07:51:48 51°14.728 2°54.487 10.2 325 16.7 101250 47
2011-08-24 07:51:54 51°14.726 2°54.456 8.5 300 16.7 101250 47
2011-08-24 07:51:59 51°14.724 2°54.431 8.8 326 16.7 101260 46
2011-08-24 07:52:04 51°14.722 2°54.405 11.7 330 16.7 101260 46
2011-08-24 07:52:08 51°14.72 2°54.385 9.9 328 16.7 101260 47
2011-08-24 07:52:14 51°14.717 2°54.354 10.7 329 16.7 101260 47
2011-08-24 07:52:19 51°14.715 2°54.329 11.2 329 16.7 101260 47
2011-08-24 07:52:24 51°14.712 2°54.303 10.6 328 16.7 101260 47
2011-08-24 07:52:28 51°14.71 2°54.283 8.8 329 16.7 101260 47
2011-08-24 07:52:34 51°14.707 2°54.252 13.1 328 16.7 101260 47
2011-08-24 07:52:39 51°14.704 2°54.227 10.6 327 16.7 101250 47
2011-08-24 07:52:44 51°14.702 2°54.201 10.4 326 16.7 101250 47
2011-08-24 07:52:48 51°14.7 2°54.181 12.4 329 16.7 101250 46
2011-08-24 07:52:54 51°14.697 2°54.15 13 327 16.7 101250 46
2011-08-24 07:52:59 51°14.694 2°54.124 13.5 328 16.7 101260 47
2011-08-24 07:53:04 51°14.692 2°54.098 9.9 326 16.7 101260 47
2011-08-24 07:53:08 51°14.691 2°54.078 13.1 328 16.7 101260 47
2011-08-24 07:53:14 51°14.688 2°54.047 9 328 16.7 101260 47
2011-08-24 07:53:19 51°14.687 2°54.021 11.8 327 16.7 101260 47
2011-08-24 07:53:24 51°14.686 2°53.995 10.6 327 16.7 101260 47
2011-08-24 07:53:28 51°14.686 2°53.974 10.5 326 16.7 101260 47
2011-08-24 07:53:34 51°14.685 2°53.943 9.7 302 16.7 101260 47
2011-08-24 07:53:39 51°14.684 2°53.917 9.7 325 16.7 101250 47
2011-08-24 07:53:44 51°14.684 2°53.891 13.9 303 16.7 101250 47
2011-08-24 07:53:49 51°14.683 2°53.864 10.6 322 16.7 101260 47
2011-08-24 07:53:54 51°14.684 2°53.838 11.2 305 16.7 101260 47
2011-08-24 07:53:59 51°14.684 2°53.812 12.6 323 16.7 101260 47
2011-08-24 07:54:04 51°14.686 2°53.786 13.8 322 16.7 101260 47
2011-08-24 07:54:08 51°14.687 2°53.765 13.9 322 16.7 101260 46
2011-08-24 07:54:14 51°14.689 2°53.734 14.2 321 16.7 101260 46
2011-08-24 07:54:19 51°14.692 2°53.708 11.9 322 16.7 101260 47
2011-08-24 07:54:24 51°14.694 2°53.682 10.7 303 16.7 101260 47
2011-08-24 07:54:29 51°14.697 2°53.656 14.7 323 16.7 101250 47
2011-08-24 07:54:34 51°14.699 2°53.629 10.9 323 16.7 101250 47
2011-08-24 07:54:39 51°14.701 2°53.603 12.4 324 16.7 101260 46
2011-08-24 07:54:44 51°14.703 2°53.576 13.1 306 16.7 101260 46
2011-08-24 07:54:49 51°14.704 2°53.55 11.5 323 16.7 101260 46
2011-08-24 07:54:54 51°14.706 2°53.524 12.3 323 16.7 101260 46
2011-08-24 07:54:59 51°14.707 2°53.497 9.6 323 16.7 101260 47
2011-08-24 07:55:04 51°14.708 2°53.471 12.6 324 16.7 101260 47
2011-08-24 07:55:09 51°14.709 2°53.444 11.2 323 16.7 101260 47
2011-08-24 07:55:14 51°14.709 2°53.418 10.9 302 16.7 101260 47
2011-08-24 07:55:19 51°14.709 2°53.391 10.8 325 16.7 101270 47
2011-08-24 07:55:24 51°14.71 2°53.365 9.8 301 16.7 101270 47
2011-08-24 07:55:29 51°14.711 2°53.339 10.8 326 16.7 101260 47
2011-08-24 07:55:34 51°14.712 2°53.312 11.3 325 16.7 101260 47
2011-08-24 07:55:39 51°14.714 2°53.286 12.1 325 16.8 101270 47
2011-08-24 07:55:44 51°14.716 2°53.26 9.2 303 16.8 101270 47
2011-08-24 07:55:49 51°14.718 2°53.234 8.8 323 16.8 101270 46
2011-08-24 07:55:54 51°14.721 2°53.208 12.1 306 16.8 101270 46
2011-08-24 07:55:59 51°14.724 2°53.182 9.8 323 16.8 101260 47
2011-08-24 07:56:04 51°14.727 2°53.156 10.2 304 16.8 101260 47
2011-08-24 07:56:09 51°14.729 2°53.13 9.6 320 16.8 101270 46
2011-08-24 07:56:14 51°14.731 2°53.104 8.9 302 16.8 101270 46
2011-08-24 07:56:19 51°14.733 2°53.078 12.1 323 16.8 101270 47
2011-08-24 07:56:24 51°14.736 2°53.052 11.6 322 16.8 101270 47
2011-08-24 07:56:28 51°14.737 2°53.031 11.4 321 16.8 101260 47
2011-08-24 07:56:34 51°14.74 2°53 10.2 306 16.8 101260 47
2011-08-24 07:56:39 51°14.742 2°52.974 10.9 323 16.8 101260 46
2011-08-24 07:56:44 51°14.744 2°52.948 12 302 16.8 101260 46
2011-08-24 07:56:48 51°14.745 2°52.927 12.9 322 16.9 101260 45
2011-08-24 07:56:54 51°14.746 2°52.895 10.6 304 16.9 101260 45
2011-08-24 07:56:59 51°14.746 2°52.869 9.4 325 16.9 101260 47
2011-08-24 07:57:04 51°14.747 2°52.843 8.9 301 16.9 101260 47
2011-08-24 07:57:08 51°14.747 2°52.822 9.2 327 16.9 101270 47
2011-08-24 07:57:14 51°14.747 2°52.791 11.3 326 16.9 101270 47
2011-08-24 07:57:19 51°14.747 2°52.764 11.7 324 16.9 101260 47
2011-08-24 07:57:24 51°14.748 2°52.738 14 324 16.9 101260 47
2011-08-24 07:57:29 51°14.748 2°52.712 9.5 325 16.9 101270 47
2011-08-24 07:57:34 51°14.749 2°52.685 10.9 306 16.9 101270 47
2011-08-24 07:57:39 51°14.751 2°52.659 9.7 323 16.9 101270 47
2011-08-24 07:57:44 51°14.753 2°52.633 13.2 307 16.9 101270 47
2011-08-24 07:57:48 51°14.754 2°52.612 13.8 322 16.9 101260 47
2011-08-24 07:57:54 51°14.757 2°52.581 10.6 304 16.9 101260 47
2011-08-24 07:57:59 51°14.76 2°52.555 12.6 322 16.9 101260 46
2011-08-24 07:58:04 51°14.762 2°52.529 9.8 303 16.9 101260 46
2011-08-24 07:58:08 51°14.764 2°52.508 10.8 323 16.9 101260 47
2011-08-24 07:58:14 51°14.767 2°52.477 8.4 306 16.9 101260 47
2011-08-24 07:58:19 51°14.769 2°52.451 13.1 324 16.9 101260 46
2011-08-24 07:58:24 51°14.771 2°52.425 9.8 304 16.9 101260 46
2011-08-24 07:58:28 51°14.773 2°52.405 13.3 324 17 101260 47
2011-08-24 07:58:34 51°14.774 2°52.374 9 304 17 101260 47
2011-08-24 07:58:39 51°14.775 2°52.348 9.4 323 17 101260 46
2011-08-24 07:58:44 51°14.776 2°52.322 10.3 303 17 101260 46
2011-08-24 07:58:48 51°14.776 2°52.301 10.3 323 16.9 101260 47
2011-08-24 07:58:54 51°14.776 2°52.27 11.8 325 16.9 101260 47
2011-08-24 07:58:59 51°14.776 2°52.244 13 325 16.9 101270 47
2011-08-24 07:59:04 51°14.777 2°52.218 12.1 303 16.9 101270 47
2011-08-24 07:59:08 51°14.777 2°52.197 11.7 325 16.9 101270 47
2011-08-24 07:59:14 51°14.777 2°52.166 11.2 324 16.9 101270 47
2011-08-24 07:59:19 51°14.778 2°52.139 10.2 324 16.9 101270 46
2011-08-24 07:59:24 51°14.779 2°52.113 9.4 300 16.9 101270 46
2011-08-24 07:59:28 51°14.78 2°52.092 10.3 325 16.9 101260 45
2011-08-24 07:59:34 51°14.782 2°52.06 11.4 324 16.9 101260 45
2011-08-24 07:59:39 51°14.784 2°52.034 11 323 16.9 101260 47
2011-08-24 07:59:44 51°14.786 2°52.008 10.4 304 16.9 101260 47
2011-08-24 07:59:49 51°14.788 2°51.981 9.7 322 16.9 101270 47
2011-08-24 07:59:54 51°14.791 2°51.955 9 303 16.9 101270 47
2011-08-24 07:59:59 51°14.793 2°51.929 8.9 325 16.9 101260 47
2011-08-24 08:00:04 51°14.795 2°51.903 9.6 325 16.9 101260 47
2011-08-24 08:00:09 51°14.797 2°51.877 10.8 326 16.9 101260 47
2011-08-24 08:00:14 51°14.798 2°51.85 9.6 303 16.9 101260 47
2011-08-24 08:00:19 51°14.799 2°51.824 9 326 16.9 101260 46
2011-08-24 08:00:24 51°14.8 2°51.798 13.7 326 16.9 101260 46
2011-08-24 08:00:29 51°14.8 2°51.772 11.8 325 16.9 101260 46
2011-08-24 08:00:34 51°14.801 2°51.746 13 325 16.9 101260 46
2011-08-24 08:00:39 51°14.801 2°51.719 12.9 325 16.9 101260 46
2011-08-24 08:00:44 51°14.801 2°51.693 12.2 304 16.9 101260 46
2011-08-24 08:00:48 51°14.801 2°51.672 12.1 324 17 101260 47
2011-08-24 08:00:54 51°14.802 2°51.64 10.8 324 17 101260 47
2011-08-24 08:00:59 51°14.802 2°51.614 11.5 324 16.9 101260 46
2011-08-24 08:01:04 51°14.803 2°51.588 9.1 301 16.9 101260 46
2011-08-24 08:01:08 51°14.803 2°51.567 9.4 325 17 101260 47
2011-08-24 08:01:14 51°14.804 2°51.536 11.3 303 17 101260 47
2011-08-24 08:01:19 51°14.804 2°51.509 9.2 324 17 101270 47
2011-08-24 08:01:24 51°14.805 2°51.483 12.4 326 17 101270 47
2011-08-24 08:01:29 51°14.805 2°51.457 8.8 324 17 101260 47
2011-08-24 08:01:34 51°14.806 2°51.431 11.4 301 17 101260 47
2011-08-24 08:01:39 51°14.806 2°51.405 13.4 325 17 101260 46
2011-08-24 08:01:44 51°14.807 2°51.379 11 304 17 101260 46
2011-08-24 08:01:49 51°14.807 2°51.353 13.2 324 17 101260 46
2011-08-24 08:01:54 51°14.808 2°51.327 11.3 326 17 101260 46
2011-08-24 08:01:59 51°14.809 2°51.301 12.1 324 17 101260 46
2011-08-24 08:02:04 51°14.811 2°51.275 8.5 304 17 101260 46
2011-08-24 08:02:09 51°14.812 2°51.249 12.9 324 16.9 101260 45
2011-08-24 08:02:14 51°14.814 2°51.222 10.6 305 16.9 101260 45
2011-08-24 08:02:19 51°14.817 2°51.197 10.3 325 16.9 101260 45
2011-08-24 08:02:24 51°14.82 2°51.171 8.8 300 16.9 101260 45
2011-08-24 08:02:29 51°14.822 2°51.145 9 325 16.9 101260 46
2011-08-24 08:02:34 51°14.825 2°51.119 11 325 16.9 101260 46
2011-08-24 08:02:39 51°14.827 2°51.094 12.3 325 16.9 101270 47
2011-08-24 08:02:44 51°14.83 2°51.068 8.5 326 16.9 101270 47
2011-08-24 08:02:49 51°14.832 2°51.042 13.1 325 17 101260 47
2011-08-24 08:02:54 51°14.835 2°51.016 11.2 304 17 101260 47
2011-08-24 08:02:59 51°14.836 2°50.991 9.3 325 16.9 101260 46
2011-08-24 08:03:04 51°14.838 2°50.965 9.1 324 16.9 101260 46
2011-08-24 08:03:09 51°14.838 2°50.939 9.7 324 17 101270 47
2011-08-24 08:03:14 51°14.839 2°50.913 8.9 303 17 101270 47
2011-08-24 08:03:19 51°14.839 2°50.887 8.8 324 17 101260 46
2011-08-24 08:03:24 51°14.839 2°50.861 11 325 17 101260 46
2011-08-24 08:03:29 51°14.839 2°50.835 10.2 325 17 101250 46
2011-08-24 08:03:34 51°14.838 2°50.809 8.3 328 17 101250 46
2011-08-24 08:03:39 51°14.838 2°50.783 11.2 327 17 101260 46
2011-08-24 08:03:44 51°14.837 2°50.758 11.2 326 17 101260 46
2011-08-24 08:03:48 51°14.836 2°50.737 13.3 325 17 101260 47
2011-08-24 08:03:54 51°14.834 2°50.706 12.3 325 17 101260 47
2011-08-24 08:03:59 51°14.834 2°50.68 8.8 325 17 101260 47
2011-08-24 08:04:04 51°14.833 2°50.655 12.9 305 17 101260 47
2011-08-24 08:04:08 51°14.833 2°50.634 13.1 324 17 101260 46
2011-08-24 08:04:14 51°14.833 2°50.603 10.7 306 17 101260 46
2011-08-24 08:04:19 51°14.834 2°50.577 10.4 322 17 101260 47
2011-08-24 08:04:24 51°14.836 2°50.551 10.7 307 17 101260 47
2011-08-24 08:04:28 51°14.837 2°50.531 9.3 323 17 101260 46
2011-08-24 08:04:34 51°14.839 2°50.5 10 305 17 101260 46
2011-08-24 08:04:39 51°14.841 2°50.474 12.1 322 17 101260 46
2011-08-24 08:04:44 51°14.842 2°50.448 9.2 305 17 101260 46
2011-08-24 08:04:48 51°14.843 2°50.428 12.7 323 17 101250 45
2011-08-24 08:04:54 51°14.844 2°50.397 9.2 305 17 101250 45
2011-08-24 08:04:59 51°14.845 2°50.371 9 323 17 101250 47
2011-08-24 08:05:04 51°14.846 2°50.345 12.8 305 17 101250 47
2011-08-24 08:05:08 51°14.846 2°50.325 8.7 322 17 101260 47
2011-08-24 08:05:14 51°14.846 2°50.294 11.3 306 17 101260 47
2011-08-24 08:05:19 51°14.846 2°50.268 11.5 326 17.1 101260 46
2011-08-24 08:05:24 51°14.846 2°50.242 13.1 306 17.1 101260 46
2011-08-24 08:05:28 51°14.846 2°50.222 11.9 324 17 101260 45
2011-08-24 08:05:33 51°14.846 2°50.196 11.8 305 17 101260 45
2011-08-24 08:05:39 51°14.847 2°50.165 9.9 324 17 101260 46
2011-08-24 08:05:44 51°14.847 2°50.139 13.7 304 17 101260 46
2011-08-24 08:05:48 51°14.847 2°50.118 11.3 322 17.1 101250 46
2011-08-24 08:05:54 51°14.849 2°50.087 10.5 306 17.1 101250 46
2011-08-24 08:05:59 51°14.85 2°50.061 11.5 323 17.1 101250 46
2011-08-24 08:06:04 51°14.852 2°50.036 12.2 307 17.1 101250 46
2011-08-24 08:06:08 51°14.853 2°50.015 8.7 324 17.1 101250 46
2011-08-24 08:06:14 51°14.855 2°49.984 9.1 300 17.1 101250 46
2011-08-24 08:06:19 51°14.857 2°49.958 8.8 323 17 101260 46
2011-08-24 08:06:24 51°14.859 2°49.933 13.9 305 17 101260 46
2011-08-24 08:06:29 51°14.86 2°49.907 13.5 324 17.1 101260 46
2011-08-24 08:06:34 51°14.861 2°49.881 13.4 302 17.1 101260 46
2011-08-24 08:06:39 51°14.862 2°49.855 12.6 323 17.1 101250 46
2011-08-24 08:06:44 51°14.863 2°49.83 11.8 305 17.1 101250 46
2011-08-24 08:06:49 51°14.863 2°49.804 11 324 17.1 101260 46
2011-08-24 08:06:54 51°14.863 2°49.778 12.2 325 17.1 101260 46
2011-08-24 08:06:59 51°14.863 2°49.752 9.1 324 17.1 101250 46
2011-08-24 08:07:04 51°14.863 2°49.726 12.9 305 17.1 101250 46
2011-08-24 08:07:09 51°14.863 2°49.701 14.1 324 17 101260 45
2011-08-24 08:07:14 51°14.863 2°49.675 13 306 17 101260 45
2011-08-24 08:07:19 51°14.863 2°49.649 10.4 324 17.1 101260 46
2011-08-24 08:07:24 51°14.863 2°49.623 13.3 306 17.1 101260 46
2011-08-24 08:07:28 51°14.863 2°49.602 9.9 324 17 101250 44
2011-08-24 08:07:34 51°14.863 2°49.571 13.1 283 17 101250 44
2011-08-24 08:07:39 51°14.863 2°49.545 10.8 326 17.1 101260 46
2011-08-24 08:07:44 51°14.863 2°49.52 9 303 17.1 101260 46
2011-08-24 08:07:48 51°14.863 2°49.499 9.1 324 17.1 101250 45
2011-08-24 08:07:53 51°14.864 2°49.473 8.8 300 17.1 101250 45
2011-08-24 08:07:59 51°14.864 2°49.442 12.3 325 17.1 101260 46
2011-08-24 08:08:04 51°14.864 2°49.416 8.4 324 17.1 101260 46
2011-08-24 08:08:09 51°14.865 2°49.39 11.5 324 17 101260 46
2011-08-24 08:08:14 51°14.865 2°49.364 12.6 324 17 101260 46
2011-08-24 08:08:19 51°14.866 2°49.338 12.9 323 17 101260 46
2011-08-24 08:08:24 51°14.867 2°49.312 8.6 305 17 101260 46
2011-08-24 08:08:29 51°14.868 2°49.286 10.7 324 17 101260 46
2011-08-24 08:08:34 51°14.869 2°49.26 8.2 303 17 101260 46
2011-08-24 08:08:39 51°14.87 2°49.235 9.8 324 17.1 101260 45
2011-08-24 08:08:44 51°14.871 2°49.209 9.1 302 17.1 101260 45
2011-08-24 08:08:48 51°14.871 2°49.188 11.3 324 17 101270 46
2011-08-24 08:08:54 51°14.873 2°49.157 11.2 302 17 101270 46
2011-08-24 08:08:59 51°14.874 2°49.131 12.1 325 17.1 101260 45
2011-08-24 08:09:04 51°14.875 2°49.105 13.1 302 17.1 101260 45
2011-08-24 08:09:08 51°14.875 2°49.084 13.2 325 17.1 101260 46
2011-08-24 08:09:14 51°14.876 2°49.053 13.2 323 17.1 101260 46
2011-08-24 08:09:19 51°14.877 2°49.028 10.7 325 17.1 101260 46
2011-08-24 08:09:24 51°14.878 2°49.002 8.5 302 17.1 101260 46
2011-08-24 08:09:28 51°14.879 2°48.981 12.3 323 17.1 101260 46
2011-08-24 08:09:34 51°14.88 2°48.95 10.6 280 17.1 101260 46
2011-08-24 08:09:39 51°14.88 2°48.924 9.3 325 17.1 101260 46
2011-08-24 08:09:44 51°14.881 2°48.898 12.8 304 17.1 101260 46
2011-08-24 08:09:48 51°14.881 2°48.878 12.1 324 17.1 101260 46
2011-08-24 08:09:54 51°14.882 2°48.846 9.1 305 17.1 101260 46
2011-08-24 08:09:59 51°14.883 2°48.821 9.8 324 17.1 101260 46
2011-08-24 08:10:04 51°14.884 2°48.795 5.4 304 17.1 101260 46
2011-08-24 08:10:08 51°14.884 2°48.774 12.8 324 17.1 101260 45
2011-08-24 08:10:14 51°14.884 2°48.743 9.3 304 17.1 101260 45
2011-08-24 08:10:19 51°14.884 2°48.717 8.6 324 17.1 101260 45
2011-08-24 08:10:24 51°14.884 2°48.691 10.8 302 17.1 101260 45
2011-08-24 08:10:29 51°14.883 2°48.665 10.6 323 17.1 101260 46
2011-08-24 08:10:34 51°14.882 2°48.639 13 325 17.1 101260 46
2011-08-24 08:10:39 51°14.881 2°48.613 8.5 324 17.1 101260 46
2011-08-24 08:10:44 51°14.88 2°48.588 10.3 304 17.1 101260 46
2011-08-24 08:10:48 51°14.879 2°48.567 9.1 325 17.1 101250 45
2011-08-24 08:10:54 51°14.878 2°48.536 11.1 324 17.1 101250 45
2011-08-24 08:10:59 51°14.876 2°48.51 12.7 326 17.1 101260 45
2011-08-24 08:11:04 51°14.875 2°48.485 8.7 301 17.1 101260 45
2011-08-24 08:11:08 51°14.873 2°48.464 10.6 327 17.1 101260 45
2011-08-24 08:11:14 51°14.871 2°48.433 10.6 302 17.1 101260 45
2011-08-24 08:11:19 51°14.871 2°48.407 10.2 327 17.1 101260 45
2011-08-24 08:11:24 51°14.87 2°48.382 11.2 301 17.1 101260 45
2011-08-24 08:11:29 51°14.869 2°48.356 10.8 327 17.1 101260 45
2011-08-24 08:11:34 51°14.869 2°48.33 9.4 279 17.1 101260 45
2011-08-24 08:11:39 51°14.868 2°48.304 10.8 327 17.1 101260 46
2011-08-24 08:11:44 51°14.868 2°48.278 5.5 327 17.1 101260 46
2011-08-24 08:11:49 51°14.868 2°48.252 10.8 327 17.1 101260 45
2011-08-24 08:11:54 51°14.867 2°48.227 9.2 327 17.1 101260 45
2011-08-24 08:11:59 51°14.865 2°48.201 12.8 326 17.1 101260 45
2011-08-24 08:12:04 51°14.864 2°48.175 11.9 328 17.1 101260 45
2011-08-24 08:12:08 51°14.862 2°48.155 9.1 326 17.1 101260 45
2011-08-24 08:12:14 51°14.86 2°48.125 12.1 325 17.1 101260 45
2011-08-24 08:12:19 51°14.858 2°48.099 10.7 326 17.1 101260 46
2011-08-24 08:12:24 51°14.856 2°48.074 11.6 325 17.1 101260 46
2011-08-24 08:12:28 51°14.854 2°48.054 9 326 17.1 101260 45
2011-08-24 08:12:33 51°14.852 2°48.028 13.6 280 17.1 101260 45
2011-08-24 08:12:39 51°14.85 2°47.998 9 327 17.1 101260 46
2011-08-24 08:12:44 51°14.848 2°47.973 13 325 17.1 101260 46
2011-08-24 08:12:49 51°14.846 2°47.947 9.7 326 17.1 101250 44
2011-08-24 08:12:54 51°14.843 2°47.922 13.3 326 17.1 101250 44
2011-08-24 08:12:59 51°14.841 2°47.897 10.1 324 17.1 101260 46
2011-08-24 08:13:04 51°14.84 2°47.871 10.9 304 17.1 101260 46
2011-08-24 08:13:09 51°14.838 2°47.846 11.8 325 17.1 101270 46
2011-08-24 08:13:14 51°14.837 2°47.82 9.3 303 17.1 101270 46
2011-08-24 08:13:19 51°14.836 2°47.794 10.3 324 17.1 101260 45
2011-08-24 08:13:24 51°14.834 2°47.769 10.4 323 17.1 101260 45
2011-08-24 08:13:28 51°14.833 2°47.748 12.7 326 17.1 101270 46
2011-08-24 08:13:34 51°14.832 2°47.718 11.9 326 17.1 101270 46
2011-08-24 08:13:39 51°14.831 2°47.692 10.6 326 17.1 101260 45
2011-08-24 08:13:44 51°14.83 2°47.667 9.8 326 17.1 101260 45
2011-08-24 08:13:48 51°14.829 2°47.646 12.5 325 17.1 101260 45
2011-08-24 08:13:54 51°14.827 2°47.616 11.6 302 17.1 101260 45
2011-08-24 08:13:59 51°14.826 2°47.591 11.8 326 17.1 101260 45
2011-08-24 08:14:04 51°14.825 2°47.565 11 326 17.1 101260 45
2011-08-24 08:14:08 51°14.824 2°47.545 12.7 326 17.1 101260 45
2011-08-24 08:14:14 51°14.822 2°47.514 12.6 327 17.1 101260 45
2011-08-24 08:14:19 51°14.821 2°47.489 9.9 327 17.1 101260 46
2011-08-24 08:14:24 51°14.82 2°47.463 12.1 328 17.1 101260 46
2011-08-24 08:14:29 51°14.82 2°47.438 12.7 327 17.1 101260 46
2011-08-24 08:14:34 51°14.819 2°47.413 12.2 301 17.1 101260 46
2011-08-24 08:14:39 51°14.818 2°47.387 11.2 326 17.1 101260 45
2011-08-24 08:14:44 51°14.817 2°47.362 10.5 328 17.1 101260 45
2011-08-24 08:14:49 51°14.816 2°47.336 11.2 328 17.1 101260 45
2011-08-24 08:14:53 51°14.815 2°47.316 11.1 327 17.1 101260 45
2011-08-24 08:14:59 51°14.814 2°47.285 12.2 328 17.1 101260 45
2011-08-24 08:15:04 51°14.814 2°47.259 12.9 327 17.1 101260 45
2011-08-24 08:15:08 51°14.813 2°47.239 10.7 327 17.1 101260 45
2011-08-24 08:15:14 51°14.813 2°47.208 10 326 17.1 101260 45
2011-08-24 08:15:19 51°14.813 2°47.182 11.9 326 17.1 101260 45
2011-08-24 08:15:24 51°14.812 2°47.157 12.4 300 17.1 101260 45
2011-08-24 08:15:28 51°14.812 2°47.136 10.2 326 17.1 101260 44
2011-08-24 08:15:34 51°14.811 2°47.105 9.6 326 17.1 101260 44
2011-08-24 08:15:39 51°14.811 2°47.08 13.2 327 17.1 101260 46
2011-08-24 08:15:44 51°14.81 2°47.054 8.8 327 17.1 101260 46
2011-08-24 08:15:49 51°14.808 2°47.029 11.2 327 17.1 101260 45
2011-08-24 08:15:54 51°14.807 2°47.003 12 303 17.1 101260 45
2011-08-24 08:15:59 51°14.804 2°46.978 13.5 325 17.1 101260 45
2011-08-24 08:16:04 51°14.802 2°46.952 9.2 303 17.1 101260 45
2011-08-24 08:16:09 51°14.8 2°46.927 13.5 325 17.1 101260 45
2011-08-24 08:16:14 51°14.798 2°46.901 13.2 325 17.1 101260 45
2011-08-24 08:16:19 51°14.795 2°46.875 13.2 325 17.1 101260 45
2011-08-24 08:16:24 51°14.793 2°46.85 11.6 302 17.1 101260 45
2011-08-24 08:16:28 51°14.791 2°46.829 11.5 326 17.1 101260 45
2011-08-24 08:16:34 51°14.788 2°46.798 9.1 325 17.1 101260 45
2011-08-24 08:16:39 51°14.786 2°46.773 8.9 325 17.1 101260 45
2011-08-24 08:16:44 51°14.784 2°46.747 9.5 302 17.1 101260 45
2011-08-24 08:16:49 51°14.782 2°46.72 11.9 322 17.1 101260 46
2011-08-24 08:16:54 51°14.781 2°46.694 9.9 304 17.1 101260 46
2011-08-24 08:16:59 51°14.78 2°46.668 10 324 17.2 101260 45
2011-08-24 08:17:04 51°14.78 2°46.642 10.2 301 17.2 101260 45
2011-08-24 08:17:09 51°14.779 2°46.615 11.2 324 17.2 101260 46
2011-08-24 08:17:13 51°14.779 2°46.594 11.4 326 17.2 101260 46
2011-08-24 08:17:19 51°14.779 2°46.563 10.2 324 17.2 101260 46
2011-08-24 08:17:24 51°14.778 2°46.536 11.2 323 17.2 101260 46
2011-08-24 08:17:29 51°14.778 2°46.51 12.5 326 17.2 101260 45
2011-08-24 08:17:34 51°14.776 2°46.484 10.9 324 17.2 101260 45
2011-08-24 08:17:39 51°14.775 2°46.458 12.2 325 17.2 101260 45
2011-08-24 08:17:44 51°14.773 2°46.432 9.3 303 17.2 101260 45
2011-08-24 08:17:49 51°14.771 2°46.406 9.4 325 17.2 101260 46
2011-08-24 08:17:54 51°14.769 2°46.38 10.6 324 17.2 101260 46
2011-08-24 08:17:59 51°14.766 2°46.354 11 326 17.2 101260 46
2011-08-24 08:18:04 51°14.764 2°46.328 13.6 327 17.2 101260 46
2011-08-24 08:18:09 51°14.762 2°46.302 13.3 327 17.2 101260 44
2011-08-24 08:18:14 51°14.76 2°46.276 9.1 325 17.2 101260 44
2011-08-24 08:18:19 51°14.757 2°46.25 11.6 325 17.2 101260 46
2011-08-24 08:18:24 51°14.755 2°46.224 10.9 326 17.2 101260 46
2011-08-24 08:18:29 51°14.753 2°46.198 9 326 17.2 101260 46
2011-08-24 08:18:34 51°14.75 2°46.172 12.4 282 17.2 101260 46
2011-08-24 08:18:39 51°14.748 2°46.146 13.4 329 17.2 101260 45
2011-08-24 08:18:44 51°14.746 2°46.12 11.7 328 17.2 101260 45
2011-08-24 08:18:48 51°14.745 2°46.099 11.8 328 17.2 101260 45
2011-08-24 08:18:54 51°14.742 2°46.068 9.5 327 17.2 101260 45
2011-08-24 08:18:59 51°14.74 2°46.042 11.9 326 17.2 101260 45
2011-08-24 08:19:04 51°14.739 2°46.016 11.5 327 17.2 101260 45
2011-08-24 08:19:08 51°14.737 2°45.995 12.4 326 17.2 101260 45
2011-08-24 08:19:14 51°14.735 2°45.963 10.8 326 17.2 101260 45
2011-08-24 08:19:19 51°14.733 2°45.937 9.5 326 17.2 101260 45
2011-08-24 08:19:24 51°14.731 2°45.911 12.7 304 17.2 101260 45
2011-08-24 08:19:28 51°14.73 2°45.89 10.2 326 17.2 101260 46
2011-08-24 08:19:34 51°14.728 2°45.859 11.4 303 17.2 101260 46
2011-08-24 08:19:39 51°14.727 2°45.832 9.2 325 17.2 101270 45
2011-08-24 08:19:44 51°14.726 2°45.806 12.5 325 17.2 101270 45
2011-08-24 08:19:48 51°14.725 2°45.785 8.5 325 17.2 101260 46
2011-08-24 08:19:54 51°14.724 2°45.754 10.9 325 17.2 101260 46
2011-08-24 08:19:59 51°14.722 2°45.728 11 326 17.2 101260 45
2011-08-24 08:20:04 51°14.721 2°45.702 11.3 325 17.2 101260 45
2011-08-24 08:20:09 51°14.718 2°45.677 11.8 327 17.2 101270 46
2011-08-24 08:20:14 51°14.715 2°45.651 10.4 326 17.2 101270 46
2011-08-24 08:20:19 51°14.713 2°45.626 12.7 327 17.2 101270 45
2011-08-24 08:20:24 51°14.71 2°45.6 12.5 328 17.2 101270 45
2011-08-24 08:20:28 51°14.707 2°45.58 12.2 328 17.2 101270 45
2011-08-24 08:20:34 51°14.702 2°45.55 12.9 280 17.2 101270 45
2011-08-24 08:20:39 51°14.698 2°45.525 12 329 17.2 101260 46
2011-08-24 08:20:44 51°14.694 2°45.501 11 329 17.2 101260 46
2011-08-24 08:20:48 51°14.691 2°45.481 10.2 329 17.2 101270 44
2011-08-24 08:20:54 51°14.685 2°45.451 10.7 330 17.2 101270 44
2011-08-24 08:20:59 51°14.68 2°45.427 10.8 328 17.2 101270 46
2011-08-24 08:21:04 51°14.674 2°45.403 10.2 329 17.2 101270 46
2011-08-24 08:21:08 51°14.67 2°45.383 9.6 328 17.2 101270 45
2011-08-24 08:21:14 51°14.664 2°45.354 12.3 329 17.2 101270 45
2011-08-24 08:21:19 51°14.658 2°45.33 13.1 329 17.2 101260 45
2011-08-24 08:21:24 51°14.654 2°45.306 11.5 301 17.2 101260 45
2011-08-24 08:21:28 51°14.649 2°45.287 10.7 329 17.2 101270 45
2011-08-24 08:21:33 51°14.644 2°45.262 12.5 329 17.2 101270 45
2011-08-24 08:21:39 51°14.638 2°45.233 8.9 329 17.2 101260 46
2011-08-24 08:21:44 51°14.633 2°45.208 10.4 329 17.2 101260 46
2011-08-24 08:21:49 51°14.628 2°45.184 11.2 329 17.2 101270 45
2011-08-24 08:21:54 51°14.623 2°45.16 11.5 330 17.2 101270 45
2011-08-24 08:21:59 51°14.618 2°45.135 10.6 329 17.2 101260 46
2011-08-24 08:22:04 51°14.614 2°45.11 11.4 327 17.2 101260 46
2011-08-24 08:22:09 51°14.61 2°45.085 12.6 329 17.1 101260 45
2011-08-24 08:22:14 51°14.607 2°45.06 9 328 17.1 101260 45
2011-08-24 08:22:19 51°14.602 2°45.036 9.6 328 17.2 101270 45
2011-08-24 08:22:24 51°14.599 2°45.01 10.4 328 17.2 101270 45
2011-08-24 08:22:28 51°14.596 2°44.99 9 328 17.2 101270 46
2011-08-24 08:22:34 51°14.591 2°44.96 9.5 328 17.2 101270 46
2011-08-24 08:22:39 51°14.587 2°44.935 14.2 328 17.2 101270 46
2011-08-24 08:22:44 51°14.583 2°44.91 10.6 329 17.2 101270 46
2011-08-24 08:22:48 51°14.58 2°44.889 11.7 328 17.2 101270 46
2011-08-24 08:22:54 51°14.575 2°44.859 10.1 329 17.2 101270 46
2011-08-24 08:22:59 51°14.571 2°44.834 12.7 330 17.2 101270 45
2011-08-24 08:23:04 51°14.566 2°44.81 12.7 328 17.2 101270 45
2011-08-24 08:23:08 51°14.562 2°44.791 11.6 329 17.2 101270 46
2011-08-24 08:23:14 51°14.556 2°44.761 13.9 329 17.2 101270 46
2011-08-24 08:23:19 51°14.552 2°44.737 14.1 331 17.2 101270 45
2011-08-24 08:23:24 51°14.546 2°44.713 11.9 328 17.2 101270 45
2011-08-24 08:23:28 51°14.542 2°44.694 10.9 329 17.2 101270 43
2011-08-24 08:23:34 51°14.536 2°44.665 12.5 328 17.2 101270 43
2011-08-24 08:23:39 51°14.531 2°44.64 11.3 330 17.2 101270 46
2011-08-24 08:23:44 51°14.526 2°44.616 11.7 329 17.2 101270 46
2011-08-24 08:23:48 51°14.521 2°44.597 12.1 329 17.2 101270 45
2011-08-24 08:23:54 51°14.516 2°44.568 11 327 17.2 101270 45
2011-08-24 08:23:59 51°14.511 2°44.543 11.1 327 17.2 101270 46
2011-08-24 08:24:04 51°14.506 2°44.519 9.3 328 17.2 101270 46
2011-08-24 08:24:08 51°14.502 2°44.499 12.6 329 17.2 101270 46
2011-08-24 08:24:14 51°14.497 2°44.47 11.2 328 17.2 101270 46
2011-08-24 08:24:19 51°14.492 2°44.445 12 327 17.2 101270 46
2011-08-24 08:24:24 51°14.488 2°44.421 11.9 328 17.2 101270 46
2011-08-24 08:24:29 51°14.483 2°44.396 12 327 17.2 101270 46
2011-08-24 08:24:34 51°14.479 2°44.372 11.5 280 17.2 101270 46
2011-08-24 08:24:39 51°14.473 2°44.348 12.9 327 17.2 101260 46
2011-08-24 08:24:44 51°14.468 2°44.323 12.6 328 17.2 101260 46
2011-08-24 08:24:48 51°14.464 2°44.304 12.8 328 17.2 101270 46
2011-08-24 08:24:54 51°14.457 2°44.276 14.7 329 17.2 101270 46
2011-08-24 08:24:59 51°14.451 2°44.252 11.6 329 17.1 101270 45
2011-08-24 08:25:04 51°14.445 2°44.228 10.6 330 17.1 101270 45
2011-08-24 08:25:08 51°14.44 2°44.209 13.9 329 17.1 101270 46
2011-08-24 08:25:14 51°14.432 2°44.181 11.2 331 17.1 101270 46
2011-08-24 08:25:19 51°14.426 2°44.157 9.4 329 17.1 101270 45
2011-08-24 08:25:24 51°14.419 2°44.134 14.8 333 17.1 101270 45
2011-08-24 08:25:29 51°14.412 2°44.111 14.2 332 17.1 101270 45
2011-08-24 08:25:34 51°14.405 2°44.088 11.4 332 17.1 101270 45
2011-08-24 08:25:39 51°14.398 2°44.064 10.6 332 17.1 101270 45
2011-08-24 08:25:44 51°14.391 2°44.041 9.1 330 17.1 101270 45
2011-08-24 08:25:48 51°14.386 2°44.023 14.3 330 17.1 101270 46
2011-08-24 08:25:53 51°14.38 2°43.999 13.7 329 17.1 101270 46
2011-08-24 08:25:59 51°14.373 2°43.97 10.8 329 17.1 101260 46
2011-08-24 08:26:04 51°14.367 2°43.946 9.4 329 17.1 101260 46
2011-08-24 08:26:08 51°14.363 2°43.926 13.9 331 17.1 101270 43
2011-08-24 08:26:14 51°14.357 2°43.897 11 330 17.1 101270 43
2011-08-24 08:26:19 51°14.352 2°43.873 13 329 17.1 101270 45
2011-08-24 08:26:24 51°14.346 2°43.848 13.4 328 17.1 101270 45
2011-08-24 08:26:28 51°14.342 2°43.829 12.2 328 17.1 101270 45
2011-08-24 08:26:34 51°14.336 2°43.8 5.9 330 17.1 101270 45
2011-08-24 08:26:39 51°14.331 2°43.775 10.7 329 17.1 101270 46
2011-08-24 08:26:44 51°14.325 2°43.751 13.1 328 17.1 101270 46
2011-08-24 08:26:48 51°14.32 2°43.732 12.3 330 17.1 101270 45
2011-08-24 08:26:54 51°14.313 2°43.704 13.6 330 17.1 101270 45
2011-08-24 08:26:59 51°14.306 2°43.68 12.9 330 17.1 101280 45
2011-08-24 08:27:04 51°14.3 2°43.656 11 329 17.1 101280 45
2011-08-24 08:27:09 51°14.293 2°43.633 11.2 331 17.1 101260 46
2011-08-24 08:27:14 51°14.287 2°43.609 10.9 330 17.1 101260 46
2011-08-24 08:27:19 51°14.28 2°43.586 11.7 330 17.1 101270 45
2011-08-24 08:27:24 51°14.273 2°43.562 11.9 330 17.1 101270 45
2011-08-24 08:27:28 51°14.268 2°43.543 14.8 331 17.1 101270 46
2011-08-24 08:27:34 51°14.26 2°43.515 10.3 332 17.1 101270 46
2011-08-24 08:27:39 51°14.253 2°43.492 9.4 329 17.1 101270 46
2011-08-24 08:27:44 51°14.246 2°43.468 11 329 17.1 101270 46
2011-08-24 08:27:48 51°14.241 2°43.45 12.8 329 17.1 101260 45
2011-08-24 08:27:54 51°14.232 2°43.422 13.3 330 17.1 101260 45
2011-08-24 08:27:59 51°14.225 2°43.398 14.6 330 17.1 101270 46
2011-08-24 08:28:04 51°14.219 2°43.375 10.9 330 17.1 101270 46
2011-08-24 08:28:08 51°14.214 2°43.356 11.7 330 17.1 101270 46
2011-08-24 08:28:14 51°14.207 2°43.327 5.8 329 17.1 101270 46
2011-08-24 08:28:19 51°14.202 2°43.302 10.4 330 17.1 101270 46
2011-08-24 08:28:24 51°14.196 2°43.278 12.5 329 17.1 101270 46
2011-08-24 08:28:29 51°14.191 2°43.253 15 330 17.1 101270 45
2011-08-24 08:28:34 51°14.186 2°43.229 10.5 331 17.1 101270 45
2011-08-24 08:28:39 51°14.18 2°43.204 11.9 331 17.1 101270 46
2011-08-24 08:28:44 51°14.174 2°43.18 10.2 331 17.1 101270 46
2011-08-24 08:28:48 51°14.17 2°43.161 14.2 331 17.1 101260 44
2011-08-24 08:28:54 51°14.163 2°43.132 12.9 331 17.1 101260 44
2011-08-24 08:28:59 51°14.157 2°43.108 10.6 331 17 101270 45
2011-08-24 08:29:04 51°14.15 2°43.084 10.4 331 17 101270 45
2011-08-24 08:29:08 51°14.145 2°43.065 9.4 329 17 101270 45
2011-08-24 08:29:14 51°14.137 2°43.037 10.9 330 17 101270 45
2011-08-24 08:29:19 51°14.13 2°43.014 11.3 330 17.1 101260 45
2011-08-24 08:29:24 51°14.124 2°42.99 9.2 330 17.1 101260 45
2011-08-24 08:29:29 51°14.116 2°42.967 11.1 332 17.1 101270 45
2011-08-24 08:29:34 51°14.11 2°42.944 12.2 330 17.1 101270 45
2011-08-24 08:29:39 51°14.103 2°42.921 11.5 330 17.1 101270 45
2011-08-24 08:29:44 51°14.096 2°42.897 14.2 330 17.1 101270 45
2011-08-24 08:29:49 51°14.089 2°42.874 10.8 330 17.1 101270 45
2011-08-24 08:29:54 51°14.083 2°42.85 12.7 331 17.1 101270 45
2011-08-24 08:29:59 51°14.076 2°42.827 11.6 331 17.1 101270 45
2011-08-24 08:30:04 51°14.07 2°42.803 11.9 329 17.1 101270 45
2011-08-24 08:30:08 51°14.064 2°42.784 12.9 329 17.1 101270 45
2011-08-24 08:30:14 51°14.056 2°42.756 13.1 331 17.1 101270 45
2011-08-24 08:30:19 51°14.049 2°42.732 14.3 331 17.1 101270 45
2011-08-24 08:30:24 51°14.042 2°42.709 14.2 331 17.1 101270 45
2011-08-24 08:30:28 51°14.037 2°42.69 14.7 329 17.1 101270 45
2011-08-24 08:30:34 51°14.03 2°42.662 12.2 276 17.1 101270 45
2011-08-24 08:30:39 51°14.024 2°42.637 9 327 17.1 101270 45
2011-08-24 08:30:44 51°14.018 2°42.613 8.8 329 17.1 101270 45
2011-08-24 08:30:49 51°14.013 2°42.588 9.7 327 17.1 101270 46
2011-08-24 08:30:54 51°14.008 2°42.563 9.7 328 17.1 101270 46
2011-08-24 08:30:59 51°14.003 2°42.539 9.2 329 17.1 101270 45
2011-08-24 08:31:04 51°13.997 2°42.514 11.4 330 17.1 101270 45
2011-08-24 08:31:09 51°13.992 2°42.489 12.8 330 17.1 101270 45
2011-08-24 08:31:14 51°13.986 2°42.465 12.5 330 17.1 101270 45
2011-08-24 08:31:19 51°13.981 2°42.44 11.8 329 17.1 101280 46
2011-08-24 08:31:24 51°13.975 2°42.416 13.8 329 17.1 101280 46
2011-08-24 08:31:28 51°13.97 2°42.396 10.5 329 17.1 101270 44
2011-08-24 08:31:34 51°13.963 2°42.367 13.2 328 17.1 101270 44
2011-08-24 08:31:39 51°13.958 2°42.342 11.7 327 17.1 101280 45
2011-08-24 08:31:44 51°13.952 2°42.317 13.6 329 17.1 101280 45
2011-08-24 08:31:48 51°13.948 2°42.297 13.7 328 17.1 101270 46
2011-08-24 08:31:54 51°13.942 2°42.267 8.9 303 17.1 101270 46
2011-08-24 08:31:59 51°13.937 2°42.242 5.4 327 17 101270 45
2011-08-24 08:32:04 51°13.931 2°42.217 10.4 329 17 101270 45
2011-08-24 08:32:09 51°13.925 2°42.193 9.2 329 17 101270 45
2011-08-24 08:32:14 51°13.92 2°42.168 9.1 329 17 101270 45
2011-08-24 08:32:19 51°13.913 2°42.144 8.8 327 17 101270 46
2011-08-24 08:32:24 51°13.907 2°42.119 11.4 328 17 101270 46
2011-08-24 08:32:28 51°13.901 2°42.1 11.8 328 17 101280 45
2011-08-24 08:32:34 51°13.893 2°42.072 13.5 283 17 101280 45
2011-08-24 08:32:39 51°13.886 2°42.048 12.2 330 17 101280 45
2011-08-24 08:32:44 51°13.879 2°42.025 12.4 331 17 101280 45
2011-08-24 08:32:48 51°13.873 2°42.006 12.2 330 17.1 101270 45
2011-08-24 08:32:54 51°13.864 2°41.978 10.5 330 17.1 101270 45
2011-08-24 08:32:59 51°13.858 2°41.954 14.6 330 17.1 101270 46
2011-08-24 08:33:04 51°13.85 2°41.93 8.5 330 17.1 101270 46
2011-08-24 08:33:09 51°13.844 2°41.906 10 331 17.1 101260 46
2011-08-24 08:33:14 51°13.837 2°41.882 11.7 327 17.1 101260 46
2011-08-24 08:33:19 51°13.83 2°41.858 10.4 328 17.1 101270 45
2011-08-24 08:33:24 51°13.823 2°41.834 5.2 303 17.1 101270 45
2011-08-24 08:33:29 51°13.816 2°41.81 13 329 17.1 101280 46
2011-08-24 08:33:34 51°13.809 2°41.786 12.2 329 17.1 101280 46
2011-08-24 08:33:39 51°13.802 2°41.762 14.3 330 17.1 101270 46
2011-08-24 08:33:44 51°13.795 2°41.738 9.4 329 17.1 101270 46
2011-08-24 08:33:49 51°13.788 2°41.714 8.8 329 17.1 101270 45
2011-08-24 08:33:54 51°13.782 2°41.69 10.1 301 17.1 101270 45
2011-08-24 08:33:59 51°13.775 2°41.666 11.8 328 17.1 101270 45
2011-08-24 08:34:04 51°13.769 2°41.641 10.3 328 17.1 101270 45
2011-08-24 08:34:09 51°13.763 2°41.616 10.1 329 17.1 101280 44
2011-08-24 08:34:14 51°13.757 2°41.592 10.8 329 17.1 101280 44
2011-08-24 08:34:19 51°13.752 2°41.567 10.5 329 17.1 101270 46
2011-08-24 08:34:24 51°13.747 2°41.542 10.8 328 17.1 101270 46
2011-08-24 08:34:28 51°13.743 2°41.522 11.1 329 17.1 101280 46
2011-08-24 08:34:34 51°13.736 2°41.492 11.5 281 17.1 101280 46
2011-08-24 08:34:39 51°13.731 2°41.466 10.5 329 17.1 101270 45
2011-08-24 08:34:44 51°13.725 2°41.442 12.1 330 17.1 101270 45
2011-08-24 08:34:49 51°13.719 2°41.418 9.9 329 17.1 101270 46
2011-08-24 08:34:54 51°13.713 2°41.393 11.9 329 17.1 101270 46
2011-08-24 08:34:59 51°13.706 2°41.369 10.9 329 17.1 101270 45
2011-08-24 08:35:04 51°13.7 2°41.345 16.4 329 17.1 101270 45
2011-08-24 08:35:08 51°13.695 2°41.326 12.6 329 17.1 101270 46
2011-08-24 08:35:14 51°13.687 2°41.297 10.4 329 17.1 101270 46
2011-08-24 08:35:19 51°13.68 2°41.273 13.4 331 17.1 101270 45
2011-08-24 08:35:24 51°13.673 2°41.249 10.8 332 17.1 101270 45
2011-08-24 08:35:28 51°13.667 2°41.23 13.1 331 17.1 101270 46
2011-08-24 08:35:34 51°13.659 2°41.201 12.7 331 17.1 101270 46
2011-08-24 08:35:39 51°13.653 2°41.177 11.5 330 17.1 101270 46
2011-08-24 08:35:44 51°13.645 2°41.154 12.4 328 17.1 101270 46
2011-08-24 08:35:49 51°13.639 2°41.129 10.9 330 17.1 101280 45
2011-08-24 08:35:54 51°13.632 2°41.105 11 329 17.1 101280 45
2011-08-24 08:35:59 51°13.625 2°41.082 12.2 329 17.1 101270 45
2011-08-24 08:36:04 51°13.619 2°41.057 13.2 329 17.1 101270 45
2011-08-24 08:36:09 51°13.612 2°41.034 10.3 329 17.1 101270 45
2011-08-24 08:36:14 51°13.605 2°41.009 11.6 329 17.1 101270 45
2011-08-24 08:36:19 51°13.599 2°40.985 10.9 329 17.1 101280 46
2011-08-24 08:36:24 51°13.593 2°40.961 9.5 329 17.1 101280 46
2011-08-24 08:36:29 51°13.586 2°40.936 10.1 329 17 101280 45
2011-08-24 08:36:34 51°13.581 2°40.911 10 281 17 101280 45
2011-08-24 08:36:39 51°13.575 2°40.887 12.4 327 17.1 101280 46
2011-08-24 08:36:44 51°13.57 2°40.862 11.2 328 17.1 101280 46
2011-08-24 08:36:48 51°13.565 2°40.842 11.3 328 17.1 101270 44
2011-08-24 08:36:54 51°13.559 2°40.812 9.4 328 17.1 101270 44
2011-08-24 08:36:59 51°13.554 2°40.787 8.7 329 17.1 101280 45
2011-08-24 08:37:04 51°13.549 2°40.762 11.5 328 17.1 101280 45
2011-08-24 08:37:08 51°13.544 2°40.742 13.9 329 17.1 101270 46
2011-08-24 08:37:14 51°13.537 2°40.713 11.9 330 17.1 101270 46
2011-08-24 08:37:19 51°13.531 2°40.688 9.8 330 17.1 101280 46
2011-08-24 08:37:24 51°13.525 2°40.664 12.8 331 17.1 101280 46
2011-08-24 08:37:28 51°13.52 2°40.644 12.8 331 17.1 101270 46
2011-08-24 08:37:34 51°13.512 2°40.615 11.8 331 17.1 101270 46
2011-08-24 08:37:39 51°13.506 2°40.591 11.3 333 17.1 101270 46
2011-08-24 08:37:44 51°13.5 2°40.567 12.9 332 17.1 101270 46
2011-08-24 08:37:48 51°13.494 2°40.548 11 332 17.1 101270 45
2011-08-24 08:37:54 51°13.487 2°40.519 11.6 331 17.1 101270 45
2011-08-24 08:37:59 51°13.48 2°40.495 10.1 332 17.1 101270 46
2011-08-24 08:38:04 51°13.473 2°40.471 9.9 330 17.1 101270 46
2011-08-24 08:38:08 51°13.467 2°40.452 14 328 17.1 101260 46
2011-08-24 08:38:14 51°13.459 2°40.424 9.2 301 17.1 101260 46
2011-08-24 08:38:19 51°13.452 2°40.4 10.7 330 17.1 101260 46
2011-08-24 08:38:24 51°13.445 2°40.376 13.8 328 17.1 101260 46
2011-08-24 08:38:28 51°13.44 2°40.356 13.9 329 17.1 101270 45
2011-08-24 08:38:34 51°13.432 2°40.327 10.9 277 17.1 101270 45
2011-08-24 08:38:39 51°13.426 2°40.303 11.2 329 17.2 101270 46
2011-08-24 08:38:44 51°13.42 2°40.279 12.1 330 17.2 101270 46
2011-08-24 08:38:49 51°13.414 2°40.254 12.9 332 17.1 101270 45
2011-08-24 08:38:54 51°13.408 2°40.229 9.3 331 17.1 101270 45
2011-08-24 08:38:59 51°13.402 2°40.205 12.9 331 17.1 101270 46
2011-08-24 08:39:04 51°13.397 2°40.18 11.2 329 17.1 101270 46
2011-08-24 08:39:08 51°13.392 2°40.16 10.1 331 17.1 101270 45
2011-08-24 08:39:14 51°13.386 2°40.13 10.9 330 17.1 101270 45
2011-08-24 08:39:19 51°13.381 2°40.105 11.8 329 17.1 101270 46
2011-08-24 08:39:24 51°13.376 2°40.08 8.5 330 17.1 101270 46
2011-08-24 08:39:28 51°13.371 2°40.06 12.3 327 17.1 101280 44
2011-08-24 08:39:34 51°13.364 2°40.03 13 330 17.1 101280 44
2011-08-24 08:39:39 51°13.359 2°40.006 12 329 17.1 101270 46
2011-08-24 08:39:44 51°13.353 2°39.981 5.5 329 17.1 101270 46
2011-08-24 08:39:49 51°13.347 2°39.957 13.1 329 17.1 101270 45
2011-08-24 08:39:54 51°13.341 2°39.932 11.2 329 17.1 101270 45
2011-08-24 08:39:59 51°13.334 2°39.909 9.3 328 17.1 101280 46
2011-08-24 08:40:04 51°13.328 2°39.884 10.4 328 17.1 101280 46
2011-08-24 08:40:08 51°13.323 2°39.865 9.9 329 17.1 101270 45
2011-08-24 08:40:14 51°13.314 2°39.836 12.1 329 17.1 101270 45
2011-08-24 08:40:19 51°13.308 2°39.812 10 328 17.1 101270 45
2011-08-24 08:40:24 51°13.302 2°39.788 13.8 329 17.1 101270 45
2011-08-24 08:40:29 51°13.296 2°39.763 10.5 328 17.1 101260 46
2011-08-24 08:40:34 51°13.29 2°39.739 13 329 17.1 101260 46
2011-08-24 08:40:39 51°13.283 2°39.715 10.7 329 17.1 101270 45
2011-08-24 08:40:44 51°13.277 2°39.69 11.4 327 17.1 101270 45
2011-08-24 08:40:48 51°13.272 2°39.671 11.6 328 17.1 101270 45
2011-08-24 08:40:54 51°13.264 2°39.642 10.7 301 17.1 101270 45
2011-08-24 08:40:59 51°13.258 2°39.618 14.4 329 17.1 101260 46
2011-08-24 08:41:04 51°13.252 2°39.594 9.5 329 17.1 101260 46
2011-08-24 08:41:08 51°13.247 2°39.574 11.9 329 17.1 101280 46
2011-08-24 08:41:14 51°13.24 2°39.545 10.6 327 17.1 101280 46
2011-08-24 08:41:19 51°13.234 2°39.521 8.9 329 17.1 101270 46
2011-08-24 08:41:24 51°13.228 2°39.497 12.5 329 17.1 101270 46
2011-08-24 08:41:28 51°13.222 2°39.478 12.6 329 17.1 101270 46
2011-08-24 08:41:34 51°13.215 2°39.448 10.4 330 17.1 101270 46
2011-08-24 08:41:39 51°13.209 2°39.424 9.9 331 17.1 101280 45
2011-08-24 08:41:44 51°13.202 2°39.4 5.2 329 17.1 101280 45
2011-08-24 08:41:48 51°13.197 2°39.381 9.8 331 17.1 101280 46
2011-08-24 08:41:54 51°13.189 2°39.352 13.5 331 17.1 101280 46
2011-08-24 08:41:59 51°13.183 2°39.328 12.8 330 17.1 101280 45
2011-08-24 08:42:04 51°13.176 2°39.304 13.8 329 17.1 101280 45
2011-08-24 08:42:08 51°13.171 2°39.284 10.3 329 17.2 101270 44
2011-08-24 08:42:14 51°13.164 2°39.256 9.4 329 17.2 101270 44
2011-08-24 08:42:19 51°13.157 2°39.232 13 329 17.1 101270 46
2011-08-24 08:42:24 51°13.151 2°39.208 9.9 329 17.1 101270 46
2011-08-24 08:42:29 51°13.144 2°39.184 12 329 17.2 101270 46
2011-08-24 08:42:34 51°13.138 2°39.16 12 281 17.2 101270 46
2011-08-24 08:42:39 51°13.131 2°39.135 10.7 330 17.2 101270 46
2011-08-24 08:42:44 51°13.125 2°39.111 11.6 329 17.2 101270 46
2011-08-24 08:42:48 51°13.119 2°39.092 10.9 330 17.1 101270 45
2011-08-24 08:42:54 51°13.112 2°39.063 5.7 300 17.1 101270 45
2011-08-24 08:42:59 51°13.105 2°39.039 10.5 330 17.1 101270 46
2011-08-24 08:43:04 51°13.099 2°39.015 10.6 330 17.1 101270 46
2011-08-24 08:43:08 51°13.094 2°38.996 11.1 330 17.1 101270 45
2011-08-24 08:43:14 51°13.087 2°38.966 10.8 330 17.1 101270 45
2011-08-24 08:43:19 51°13.081 2°38.941 11.4 330 17.1 101270 46
2011-08-24 08:43:24 51°13.076 2°38.917 9.4 330 17.1 101270 46
2011-08-24 08:43:28 51°13.071 2°38.897 10.8 329 17.1 101270 45
2011-08-24 08:43:34 51°13.065 2°38.867 14 301 17.1 101270 45
2011-08-24 08:43:39 51°13.059 2°38.843 11 328 17.1 101280 45
2011-08-24 08:43:44 51°13.054 2°38.818 9.8 329 17.1 101280 45
2011-08-24 08:43:48 51°13.05 2°38.798 11.4 327 17.1 101270 46
2011-08-24 08:43:54 51°13.043 2°38.769 12.4 300 17.1 101270 46
2011-08-24 08:43:59 51°13.038 2°38.744 11.9 328 17.1 101270 45
2011-08-24 08:44:04 51°13.033 2°38.72 10.5 329 17.1 101270 45
2011-08-24 08:44:08 51°13.028 2°38.7 9.7 329 17.1 101270 45
2011-08-24 08:44:14 51°13.021 2°38.67 13.7 328 17.1 101270 45
2011-08-24 08:44:19 51°13.015 2°38.646 9 328 17.1 101270 45
2011-08-24 08:44:24 51°13.009 2°38.622 10.9 329 17.1 101270 45
2011-08-24 08:44:28 51°13.004 2°38.602 11.7 331 17.1 101270 45
2011-08-24 08:44:34 51°12.996 2°38.573 9.9 278 17.1 101270 45
2011-08-24 08:44:39 51°12.99 2°38.549 9.1 330 17.1 101270 45
2011-08-24 08:44:44 51°12.983 2°38.525 12.8 330 17.1 101270 45
2011-08-24 08:44:49 51°12.976 2°38.501 10.6 331 17 101270 43
2011-08-24 08:44:54 51°12.969 2°38.477 11.8 330 17 101270 43
2011-08-24 08:44:59 51°12.963 2°38.453 9.4 331 17.1 101270 45
2011-08-24 08:45:04 51°12.956 2°38.429 13.7 331 17.1 101270 45
2011-08-24 08:45:08 51°12.951 2°38.41 12.2 332 17.1 101270 45
2011-08-24 08:45:14 51°12.943 2°38.381 10.8 329 17.1 101270 45
2011-08-24 08:45:19 51°12.936 2°38.357 10.8 329 17.1 101270 46
2011-08-24 08:45:24 51°12.931 2°38.332 13.6 328 17.1 101270 46
2011-08-24 08:45:29 51°12.925 2°38.308 9.7 328 17.1 101270 45
2011-08-24 08:45:34 51°12.92 2°38.283 11 328 17.1 101270 45
2011-08-24 08:45:39 51°12.915 2°38.259 11.6 329 17.1 101260 46
2011-08-24 08:45:44 51°12.91 2°38.235 11.4 329 17.1 101260 46
2011-08-24 08:45:49 51°12.905 2°38.211 12.6 328 17.1 101270 45
2011-08-24 08:45:54 51°12.901 2°38.187 9.8 327 17.1 101270 45
2011-08-24 08:45:59 51°12.897 2°38.162 12.4 327 17.1 101270 45
2011-08-24 08:46:04 51°12.892 2°38.138 9.6 302 17.1 101270 45
2011-08-24 08:46:08 51°12.889 2°38.119 13.6 327 17.1 101270 46
2011-08-24 08:46:14 51°12.885 2°38.091 12.6 327 17.1 101270 46
2011-08-24 08:46:19 51°12.881 2°38.07 8.9 328 17.1 101270 45
2011-08-24 08:46:24 51°12.878 2°38.051 10.6 328 17.1 101270 45
2011-08-24 08:46:28 51°12.875 2°38.036 8.7 329 17.1 101270 45
2011-08-24 08:46:34 51°12.872 2°38.014 10.3 279 17.1 101270 45
2011-08-24 08:46:39 51°12.869 2°37.998 8.3 327 17.1 101280 46
2011-08-24 08:46:44 51°12.866 2°37.982 10.8 324 17.1 101280 46
2011-08-24 08:46:49 51°12.864 2°37.967 8.3 325 17.1 101270 46
2011-08-24 08:46:54 51°12.862 2°37.952 9.1 305 17.1 101270 46
2011-08-24 08:46:59 51°12.861 2°37.939 7.3 324 17.1 101280 46
2011-08-24 08:47:04 51°12.86 2°37.926 10.2 307 17.1 101280 46
2011-08-24 08:47:08 51°12.859 2°37.916 9.8 321 17.1 101270 46
2011-08-24 08:47:14 51°12.859 2°37.902 8.3 302 17.1 101270 46
2011-08-24 08:47:19 51°12.859 2°37.89 7.4 322 17.1 101280 45
2011-08-24 08:47:24 51°12.859 2°37.88 10.2 306 17.1 101280 45
2011-08-24 08:47:29 51°12.86 2°37.869 9.3 320 17.1 101280 44
2011-08-24 08:47:34 51°12.86 2°37.86 9.3 302 17.1 101280 44
2011-08-24 08:47:39 51°12.861 2°37.85 8.7 317 17.1 101280 46
2011-08-24 08:47:44 51°12.862 2°37.841 8.3 306 17.1 101280 46
2011-08-24 08:47:49 51°12.864 2°37.833 6.5 21 17.1 101280 45
2011-08-24 08:47:54 51°12.866 2°37.825 6.6 304 17.1 101280 45
2011-08-24 08:47:59 51°12.868 2°37.818 6.9 21 17.1 101280 45
2011-08-24 08:48:04 51°12.87 2°37.811 7.2 302 17.1 101280 45
2011-08-24 08:48:08 51°12.872 2°37.805 6.4 20 17.1 101280 45
2011-08-24 08:48:14 51°12.875 2°37.797 7.5 301 17.1 101280 45
2011-08-24 08:48:19 51°12.878 2°37.791 8.1 23 17.1 101280 45
2011-08-24 08:48:24 51°12.881 2°37.785 6.7 309 17.1 101280 45
2011-08-24 08:48:28 51°12.883 2°37.78 6.3 27 17.1 101280 46
2011-08-24 08:48:34 51°12.887 2°37.773 7 35 17.1 101280 46
2011-08-24 08:48:39 51°12.889 2°37.767 7.1 25 17.1 101280 45
2011-08-24 08:48:44 51°12.893 2°37.762 8.3 309 17.1 101280 45
2011-08-24 08:48:49 51°12.896 2°37.756 7.1 22 17.1 101280 45
2011-08-24 08:48:54 51°12.899 2°37.75 7.1 310 17.1 101280 45
2011-08-24 08:48:59 51°12.901 2°37.743 6.6 24 17.1 101280 45
2011-08-24 08:49:04 51°12.904 2°37.737 6.1 33 17.1 101280 45
2011-08-24 08:49:08 51°12.907 2°37.732 7.2 27 17.1 101280 45
2011-08-24 08:49:14 51°12.91 2°37.725 6.9 303 17.1 101280 45
2011-08-24 08:49:19 51°12.913 2°37.719 6.6 29 17.1 101280 45
2011-08-24 08:49:24 51°12.916 2°37.712 7.1 304 17.1 101280 45
2011-08-24 08:49:29 51°12.919 2°37.706 6.4 29 17.1 101280 45
2011-08-24 08:49:34 51°12.922 2°37.7 6.5 303 17.1 101280 45
2011-08-24 08:49:39 51°12.925 2°37.693 6.6 25 17.1 101280 45
2011-08-24 08:49:44 51°12.928 2°37.687 7.8 307 17.1 101280 45
2011-08-24 08:49:48 51°12.93 2°37.682 7.8 28 17.1 101280 45
2011-08-24 08:49:54 51°12.934 2°37.674 7.9 305 17.1 101280 45
2011-08-24 08:49:59 51°12.937 2°37.668 7.5 27 17.1 101280 45
2011-08-24 08:50:04 51°12.94 2°37.661 8 305 17.1 101280 45
2011-08-24 08:50:09 51°12.943 2°37.655 6.6 22 17.1 101270 43
2011-08-24 08:50:14 51°12.947 2°37.649 6 304 17.1 101270 43
2011-08-24 08:50:19 51°12.95 2°37.644 6.7 23 17.1 101270 45
2011-08-24 08:50:24 51°12.953 2°37.639 6.3 306 17.1 101270 45
2011-08-24 08:50:29 51°12.956 2°37.635 6.5 28 17.1 101270 45
2011-08-24 08:50:34 51°12.958 2°37.632 7.3 284 17.1 101270 45
2011-08-24 08:50:39 51°12.961 2°37.629 6.2 26 17.1 101270 45
2011-08-24 08:50:44 51°12.962 2°37.628 6.8 303 17.1 101270 45
2011-08-24 08:50:49 51°12.963 2°37.628 6.5 248 17.1 101270 46
2011-08-24 08:50:54 51°12.964 2°37.629 5.7 305 17.1 101270 46
2011-08-24 08:50:59 51°12.964 2°37.631 5.7 250 17.1 101270 46
2011-08-24 08:51:04 51°12.965 2°37.632 5.8 306 17.1 101270 46
2011-08-24 08:51:08 51°12.966 2°37.633 5.6 252 17.1 101280 45
2011-08-24 08:51:14 51°12.966 2°37.635 4.9 304 17.1 101280 45
2011-08-24 08:51:19 51°12.967 2°37.637 5.5 257 17.1 101280 44
2011-08-24 08:51:24 51°12.968 2°37.639 4.6 301 17.1 101280 44
2011-08-24 08:51:28 51°12.968 2°37.64 5.7 252 17.1 101280 46
2011-08-24 08:51:34 51°12.969 2°37.642 5.8 279 17.1 101280 46
2011-08-24 08:51:40 51°12.97 2°37.644 5.8 253 17.1 101280 46
2011-08-24 08:51:46 51°12.971 2°37.646 6.6 304 17.1 101280 46
2011-08-24 08:51:52 51°12.972 2°37.648 5.6 253 17.1 101280 45
2011-08-24 08:51:57 51°12.973 2°37.649 6.1 302 17.1 101280 45
2011-08-24 08:52:02 51°12.973 2°37.651 6.4 257 17.1 101280 45
2011-08-24 08:52:07 51°12.974 2°37.653 6.1 303 17.1 101280 45
2011-08-24 08:52:12 51°12.975 2°37.654 5.9 259 17.1 101280 45
2011-08-24 08:52:17 51°12.976 2°37.656 5.9 309 17.1 101280 45
2011-08-24 08:52:22 51°12.977 2°37.658 6.9 259 17.2 101280 45
2011-08-24 08:52:27 51°12.978 2°37.66 6.8 304 17.2 101280 45
2011-08-24 08:52:32 51°12.978 2°37.662 6.6 258 17.2 101280 45
2011-08-24 08:52:37 51°12.979 2°37.664 4.9 277 17.2 101280 45
2011-08-24 08:52:42 51°12.979 2°37.665 6.6 259 17.2 101280 45
2011-08-24 08:52:47 51°12.98 2°37.667 6.1 301 17.2 101280 45
2011-08-24 08:52:52 51°12.981 2°37.669 3.8 264 17.2 101280 43
2011-08-24 08:52:57 51°12.982 2°37.671 4.2 304 17.2 101280 43
2011-08-24 08:53:02 51°12.983 2°37.673 4.2 264 17.2 101280 45
2011-08-24 08:53:07 51°12.984 2°37.675 4.3 307 17.2 101280 45
2011-08-24 08:53:12 51°12.985 2°37.677 4.9 266 17.2 101290 45
2011-08-24 08:53:16 51°12.986 2°37.678 4.7 308 17.2 101290 45
2011-08-24 08:53:21 51°12.987 2°37.68 5.2 262 17.2 101280 45
2011-08-24 08:53:26 51°12.988 2°37.682 4.4 308 17.2 101280 45
2011-08-24 08:53:31 51°12.989 2°37.683 4.2 264 17.2 101290 45
2011-08-24 08:53:36 51°12.99 2°37.685 5.3 309 17.2 101290 45
2011-08-24 08:53:41 51°12.991 2°37.687 5.1 263 17.2 101280 46
2011-08-24 08:53:46 51°12.992 2°37.689 4.9 307 17.2 101280 46
2011-08-24 08:53:50 51°12.992 2°37.69 5.1 265 17.2 101280 45
2011-08-24 08:53:55 51°12.993 2°37.692 4.6 309 17.2 101280 45
2011-08-24 08:54:00 51°12.994 2°37.694 4.4 264 17.2 101290 45
2011-08-24 08:54:05 51°12.995 2°37.696 4.8 308 17.2 101290 45
2011-08-24 08:54:10 51°12.997 2°37.698 4.2 264 17.2 101280 45
2011-08-24 08:54:15 51°12.998 2°37.699 5.1 303 17.2 101280 45
2011-08-24 08:54:20 51°12.999 2°37.701 6.1 261 17.2 101290 46
2011-08-24 08:54:24 51°13 2°37.703 5.4 310 17.2 101290 46
2011-08-24 08:54:29 51°13.001 2°37.704 4.4 264 17.2 101280 46
2011-08-24 08:54:34 51°13.002 2°37.707 4.6 283 17.2 101280 46
2011-08-24 08:54:39 51°13.002 2°37.708 4.6 264 17.2 101290 46
2011-08-24 08:54:44 51°13.003 2°37.71 5.1 308 17.2 101290 46
2011-08-24 08:54:48 51°13.003 2°37.712 4.9 265 17.2 101280 45
2011-08-24 08:54:54 51°13.004 2°37.714 4.6 309 17.2 101280 45
2011-08-24 08:54:59 51°13.005 2°37.716 4.7 265 17.2 101290 46
2011-08-24 08:55:04 51°13.005 2°37.718 4.6 304 17.2 101290 46
2011-08-24 08:55:08 51°13.006 2°37.719 4.1 266 17.2 101290 44
2011-08-24 08:55:14 51°13.006 2°37.722 4.3 303 17.2 101290 44
2011-08-24 08:55:19 51°13.007 2°37.724 3.9 265 17.2 101290 46
2011-08-24 08:55:24 51°13.007 2°37.726 3.9 304 17.2 101290 46
2011-08-24 08:55:28 51°13.008 2°37.727 5 269 17.2 101290 43
2011-08-24 08:55:34 51°13.008 2°37.73 4.6 302 17.2 101290 43
2011-08-24 08:55:39 51°13.009 2°37.732 4.9 265 17.2 101290 45
2011-08-24 08:55:44 51°13.01 2°37.734 4.5 300 17.2 101290 45
2011-08-24 08:55:48 51°13.01 2°37.735 5 265 17.2 101290 45
2011-08-24 08:55:54 51°13.011 2°37.738 4.1 303 17.2 101290 45
2011-08-24 08:55:59 51°13.011 2°37.74 4.1 266 17.2 101290 44
2011-08-24 08:56:04 51°13.012 2°37.742 4.2 308 17.2 101290 44
2011-08-24 08:56:09 51°13.013 2°37.744 4.5 266 17.2 101290 45
2011-08-24 08:56:14 51°13.013 2°37.746 3.9 303 17.2 101290 45
2011-08-24 08:56:19 51°13.014 2°37.748 4.4 265 17.2 101290 45
2011-08-24 08:56:24 51°13.014 2°37.75 4.5 301 17.2 101290 45
2011-08-24 08:56:29 51°13.015 2°37.752 4.4 265 17.2 101300 45
2011-08-24 08:56:34 51°13.016 2°37.754 4 285 17.2 101300 45
2011-08-24 08:56:39 51°13.016 2°37.756 5.1 267 17.2 101290 45
2011-08-24 08:56:44 51°13.017 2°37.758 4.8 301 17.2 101290 45
2011-08-24 08:56:48 51°13.017 2°37.76 3.9 265 17.2 101290 46
2011-08-24 08:56:54 51°13.018 2°37.762 4.7 308 17.2 101290 46
2011-08-24 08:56:59 51°13.019 2°37.765 4 266 17.2 101290 46
2011-08-24 08:57:04 51°13.019 2°37.767 5.2 305 17.2 101290 46
2011-08-24 08:57:08 51°13.02 2°37.768 4.3 266 17.2 101290 46
2011-08-24 08:57:14 51°13.021 2°37.77 4.4 308 17.2 101290 46
2011-08-24 08:57:19 51°13.021 2°37.773 4.3 265 17.2 101290 46
2011-08-24 08:57:24 51°13.022 2°37.774 4.4 307 17.2 101290 46
2011-08-24 08:57:28 51°13.022 2°37.776 4.4 266 17.2 101290 45
2011-08-24 08:57:34 51°13.023 2°37.779 4.1 301 17.2 101290 45
2011-08-24 08:57:39 51°13.024 2°37.781 4.5 267 17.2 101290 45
2011-08-24 08:57:44 51°13.025 2°37.783 4.4 308 17.2 101290 45
2011-08-24 08:57:49 51°13.025 2°37.785 4.8 268 17.2 101290 45
2011-08-24 08:57:54 51°13.026 2°37.787 4.5 310 17.2 101290 45
2011-08-24 08:57:59 51°13.026 2°37.788 4.4 265 17.2 101290 46
2011-08-24 08:58:04 51°13.027 2°37.79 5.3 266 17.2 101290 46
2011-08-24 08:58:09 51°13.028 2°37.792 4.8 268 17.2 101290 44
2011-08-24 08:58:14 51°13.029 2°37.794 4.8 307 17.2 101290 44
2011-08-24 08:58:19 51°13.029 2°37.796 4.8 269 17.2 101290 46
2011-08-24 08:58:24 51°13.03 2°37.798 4.1 309 17.2 101290 46
2011-08-24 08:58:29 51°13.031 2°37.8 5 270 17.2 101290 47
2011-08-24 08:58:34 51°13.031 2°37.802 5.4 280 17.2 101290 47
2011-08-24 08:58:39 51°13.032 2°37.804 6 32 17.2 101290 46
2011-08-24 08:58:44 51°13.033 2°37.805 6 308 17.2 101290 46
2011-08-24 08:58:48 51°13.033 2°37.807 4.8 269 17.3 101300 45
2011-08-24 08:58:54 51°13.035 2°37.809 4.3 302 17.3 101300 45
2011-08-24 08:58:59 51°13.035 2°37.811 4.5 269 17.3 101300 46
2011-08-24 08:59:04 51°13.036 2°37.813 4.5 302 17.3 101300 46
2011-08-24 08:59:09 51°13.037 2°37.815 4.4 268 17.3 101300 45
2011-08-24 08:59:14 51°13.038 2°37.816 5 301 17.3 101300 45
2011-08-24 08:59:19 51°13.038 2°37.818 4.4 269 17.3 101300 46
2011-08-24 08:59:24 51°13.039 2°37.82 5.3 303 17.3 101300 46
2011-08-24 08:59:29 51°13.04 2°37.821 5.6 270 17.3 101300 45
2011-08-24 08:59:34 51°13.041 2°37.823 4.8 301 17.3 101300 45
2011-08-24 08:59:39 51°13.042 2°37.825 4.4 267 17.3 101300 45
2011-08-24 08:59:44 51°13.042 2°37.827 5.9 308 17.3 101300 45
2011-08-24 08:59:48 51°13.043 2°37.828 5 269 17.4 101300 45
2011-08-24 08:59:54 51°13.044 2°37.831 5.2 303 17.4 101300 45
2011-08-24 08:59:59 51°13.045 2°37.832 5.3 269 17.4 101300 46
2011-08-24 09:00:04 51°13.046 2°37.834 4.4 309 17.4 101300 46
2011-08-24 09:00:08 51°13.047 2°37.836 5.8 269 17.3 101300 45
2011-08-24 09:00:14 51°13.047 2°37.838 5.4 310 17.3 101300 45
2011-08-24 09:00:19 51°13.048 2°37.84 4.8 267 17.3 101300 45
2011-08-24 09:00:24 51°13.049 2°37.842 4.9 307 17.3 101300 45
2011-08-24 09:00:28 51°13.05 2°37.843 4.2 265 17.3 101300 44
2011-08-24 09:00:34 51°13.051 2°37.845 4.4 283 17.3 101300 44
2011-08-24 09:00:39 51°13.052 2°37.847 4.6 267 17.3 101300 44
2011-08-24 09:00:44 51°13.053 2°37.849 4 308 17.3 101300 44
2011-08-24 09:00:49 51°13.054 2°37.851 4 262 17.3 101290 43
2011-08-24 09:00:54 51°13.054 2°37.853 4.3 303 17.3 101290 43
2011-08-24 09:00:59 51°13.055 2°37.854 4.3 263 17.3 101300 45